Weather History for Ely, NV

Change the Weather History Date:

Thursday, November 17, 2011

  Actual Average Record
Temperature  
Mean Temperature 37 °F 33 °F  
Max Temperature 55 °F 48 °F 69 °F (1949)
Min Temperature 18 °F 18 °F -10 °F (1964)
Degree Days  
Heating Degree Days 28 32  
Month to date heating degree days 573 486  
Since 1 July heating degree days 1255 1414  
Cooling Degree Days 0 0  
Month to date cooling degree days 0 0  
Year to date cooling degree days 259 218  
Moisture  
Dew Point 18 °F    
Average Humidity 53    
Maximum Humidity 84    
Minimum Humidity 22    
Precipitation  
Precipitation 0.00 in 0.02 in 0.52 in (1941)
Month to date precipitation 0.36 0.44  
Year to date precipitation 11.78 8.91  
Snow  
Snow 0.00 in 0.20 in 3.10 in (1988)
Month to date snowfall 6.0 3.2  
Since 1 July snowfall 8.6 6.6  
Since 1 September snowfall 8.6 6.6  
Snow Depth 0.00 in    
Sea Level Pressure  
Sea Level Pressure 30.04 in    
Wind  
Wind Speed 7 mph (South)    
Max Wind Speed 18 mph    
Max Gust Speed 23 mph    
Visibility 10 miles    
Events      
T = Trace of Precipitation, MM = Missing Value Source: NWS Daily Summary

Daily Weather History Graph

Daily Weather History Graph

Search for Another Location

Airport:

Trip Planner

Search our weather history database for the weather conditions in past years. The results will help you decide how hot, cold, wet, or windy it might be!

Date:

Astronomy

Nov. 17, 2011 Rise Set
Actual Time 6:24 AM PST 4:23 PM PST
Civil Twilight 5:56 AM PST 4:52 PM PST
Nautical Twilight 5:23 AM PST 5:24 PM PST
Astronomical Twilight 4:51 AM PST 5:56 PM PST
Moon 10:47 PM PST (11/17) 11:36 AM PST (11/17)
Length of Visible Light 10h 55m
Length of Day
9h 58m
Waning Gibbous, 59% of the Moon is Illuminated
Nov 17
Waning Gibbous
Nov 18
Last Quarter
Nov 24
New
Dec 2
First Quarter
Dec 10
Full

Hourly Weather History & Observations

Time (PST) Temp. Windchill Dew Point Humidity Pressure Visibility Wind Dir Wind Speed Gust Speed Precip Events Conditions
12:53 AM 21.9 °F 15.7 °F 12.9 °F 68% 30.24 in 10.0 mi South 4.6 mph - N/A   Clear
1:53 AM 19.9 °F 10.1 °F 14.0 °F 78% 30.22 in 10.0 mi South 8.1 mph - N/A   Clear
2:53 AM 19.9 °F 10.1 °F 14.0 °F 78% 30.21 in 10.0 mi South 8.1 mph - N/A   Clear
3:53 AM 19.0 °F - 12.9 °F 77% 30.22 in 10.0 mi North - - N/A   Clear
4:53 AM 19.9 °F - 15.1 °F 81% 30.27 in 10.0 mi North - - N/A   Clear
5:01 AM 19.4 °F 9.5 °F 15.8 °F 86% 30.20 in 10.0 mi SSE 8.1 mph - N/A   Clear
5:53 AM 19.9 °F 10.1 °F 15.1 °F 81% 30.27 in 10.0 mi South 8.1 mph - N/A   Clear
6:53 AM 19.9 °F 9.3 °F 15.1 °F 81% 30.27 in 10.0 mi SSE 9.2 mph - N/A   Clear
7:53 AM 32.0 °F 28.7 °F 19.9 °F 61% 30.22 in 10.0 mi SSW 3.5 mph - N/A   Clear
8:53 AM 41.0 °F 39.0 °F 21.0 °F 45% 30.17 in 10.0 mi SSE 3.5 mph - N/A   Clear
9:53 AM 48.9 °F - 21.9 °F 35% 30.11 in 10.0 mi South 6.9 mph - N/A   Clear
10:53 AM 52.0 °F - 19.9 °F 28% 30.05 in 10.0 mi SSE 3.5 mph - N/A   Clear
11:53 AM 54.0 °F - 18.0 °F 24% 30.03 in 10.0 mi SSW 10.4 mph 18.4 mph N/A   Clear
12:53 PM 55.0 °F - 17.1 °F 23% 29.98 in 10.0 mi SSW 6.9 mph - N/A   Clear
1:53 PM 55.0 °F - 17.1 °F 23% 29.96 in 10.0 mi SSW 9.2 mph 17.3 mph N/A   Clear
2:53 PM 51.1 °F - 19.0 °F 28% 29.94 in 10.0 mi South 10.4 mph - N/A   Clear
3:53 PM 50.0 °F - 21.0 °F 32% 29.92 in 10.0 mi SSE 16.1 mph 21.9 mph N/A   Clear
4:53 PM 45.0 °F 38.5 °F 19.9 °F 37% 29.93 in 10.0 mi South 13.8 mph - N/A   Clear
5:53 PM 39.0 °F 31.4 °F 19.9 °F 46% 29.94 in 10.0 mi SSE 12.7 mph - N/A   Clear
6:53 PM 37.0 °F 28.9 °F 19.9 °F 50% 29.94 in 10.0 mi South 12.7 mph - N/A   Clear
7:53 PM 36.0 °F 27.1 °F 21.0 °F 55% 29.88 in 10.0 mi South 13.8 mph - N/A   Clear
8:53 PM 39.0 °F 29.9 °F 19.9 °F 46% 29.81 in 10.0 mi South 17.3 mph - N/A   Clear
9:53 PM 37.0 °F 27.0 °F 19.9 °F 50% 29.77 in 10.0 mi South 18.4 mph - N/A   Clear
10:53 PM 35.1 °F 25.5 °F 19.9 °F 54% 29.76 in 10.0 mi South 15.0 mph - N/A   Clear
11:53 PM 37.0 °F 27.7 °F 19.9 °F 50% 29.72 in 10.0 mi South 16.1 mph 23.0 mph N/A   Clear